Time,TemperatureF,DewpointF,PressureIn,WindDirection,WindDirectionDegrees,WindSpeedMPH,WindSpeedGustMPH,Humidity,HourlyPrecipIn,Conditions,Clouds,dailyrainin,SoftwareType,DateUTC
2013-10-22 00:00:00,81.9,75.6,29.89,WSW,255,4.0,6.6,81,0.00,,---,0.00,VWS V13.01,2013-10-22 04:00:00,
2013-10-22 11:38:00,87.0,75.6,29.96,ESE,120,2.2,2.2,69,0.53,,---,0.00,VWS V13.01,2013-10-22 15:38:00,
2013-10-22 11:39:00,86.9,75.4,29.96,South,173,4.8,9.6,69,0.53,,---,0.00,VWS V13.01,2013-10-22 15:39:00,
2013-10-22 11:44:00,86.8,75.8,29.96,SSE,165,5.2,7.3,70,0.53,,---,0.00,VWS V13.01,2013-10-22 15:44:00,
2013-10-22 11:49:00,86.7,76.1,29.95,SE,134,3.6,8.4,71,0.53,,---,0.00,VWS V13.01,2013-10-22 15:49:00,
2013-10-22 11:54:00,87.0,76.1,29.95,ESE,122,1.1,5.3,70,0.53,,---,0.00,VWS V13.01,2013-10-22 15:54:00,
2013-10-22 11:59:00,87.5,74.8,29.95,SW,226,8.8,8.8,66,0.53,,---,0.00,VWS V13.01,2013-10-22 15:59:00,
2013-10-22 12:04:00,87.5,74.9,29.95,South,191,8.9,10.4,66,0.53,,---,0.00,VWS V13.01,2013-10-22 16:04:00,
2013-10-22 12:09:00,87.5,75.3,29.95,SSW,193,2.2,3.5,67,0.53,,---,0.00,VWS V13.01,2013-10-22 16:09:00,
2013-10-22 12:14:00,87.8,74.8,29.95,SSW,208,5.7,9.3,65,0.53,,---,0.00,VWS V13.01,2013-10-22 16:14:00,
2013-10-22 12:19:00,87.7,75.0,29.94,SSW,198,5.9,9.6,66,0.53,,---,0.00,VWS V13.01,2013-10-22 16:19:00,
2013-10-22 12:24:00,88.4,75.4,29.94,SSE,162,2.2,5.8,66,0.53,,---,0.00,VWS V13.01,2013-10-22 16:24:00,
2013-10-22 12:29:00,88.1,73.4,29.94,WSW,239,4.0,10.8,62,0.53,,---,0.00,VWS V13.01,2013-10-22 16:29:00,
2013-10-22 12:34:00,88.2,74.3,29.94,SSE,155,6.9,9.2,64,0.53,,---,0.00,VWS V13.01,2013-10-22 16:34:00,
2013-10-22 12:39:00,87.7,74.7,29.94,SSW,201,3.5,10.6,65,0.00,,---,0.00,VWS V13.01,2013-10-22 16:39:00,
2013-10-22 12:44:00,87.7,73.9,29.94,South,191,3.7,8.0,64,0.00,,---,0.00,VWS V13.01,2013-10-22 16:44:00,
2013-10-22 12:50:00,87.0,74.1,29.93,South,172,10.5,10.5,66,0.00,,---,0.00,VWS V13.01,2013-10-22 16:50:00,
2013-10-22 12:55:00,86.5,74.0,29.93,SSE,155,6.0,6.8,66,0.00,,---,0.00,VWS V13.01,2013-10-22 16:55:00,
2013-10-22 13:00:00,86.2,73.2,29.92,SSE,165,5.9,7.3,65,0.00,,---,0.00,VWS V13.01,2013-10-22 17:00:00,
2013-10-22 13:05:00,86.1,73.1,29.92,East,89,2.9,9.4,65,0.00,,---,0.00,VWS V13.01,2013-10-22 17:05:00,
2013-10-22 13:10:00,85.9,74.4,29.92,South,184,2.7,8.7,69,0.00,,---,0.00,VWS V13.01,2013-10-22 17:10:00,
2013-10-22 13:15:00,85.5,75.7,29.92,South,181,10.8,10.8,72,0.00,,---,0.00,VWS V13.01,2013-10-22 17:15:00,
2013-10-22 13:20:00,85.1,75.1,29.91,South,177,5.0,5.2,72,0.00,,---,0.00,VWS V13.01,2013-10-22 17:20:00,
2013-10-22 13:25:00,85.0,75.8,29.91,South,172,4.1,8.3,74,0.00,,---,0.00,VWS V13.01,2013-10-22 17:25:00,
2013-10-22 13:30:00,85.2,76.0,29.91,South,179,2.0,7.1,74,0.00,,---,0.00,VWS V13.01,2013-10-22 17:30:00,
2013-10-22 13:35:00,85.2,76.1,29.91,SSW,212,4.3,6.8,74,0.00,,---,0.00,VWS V13.01,2013-10-22 17:35:00,
2013-10-22 13:40:00,85.1,75.8,29.91,SSW,198,3.3,4.8,74,0.00,,---,0.00,VWS V13.01,2013-10-22 17:40:00,
2013-10-22 13:45:00,85.3,75.7,29.91,South,170,6.3,9.9,73,0.00,,---,0.00,VWS V13.01,2013-10-22 17:45:00,
2013-10-22 13:50:00,85.3,74.3,29.91,SW,228,10.9,14.8,70,0.00,,---,0.00,VWS V13.01,2013-10-22 17:50:00,
2013-10-22 13:55:00,85.9,75.8,29.90,SSW,202,6.2,8.5,72,0.00,,---,0.00,VWS V13.01,2013-10-22 17:55:00,
2013-10-22 14:00:00,86.5,75.9,29.90,South,191,7.0,11.5,71,0.00,,---,0.00,VWS V13.01,2013-10-22 18:00:00,
2013-10-22 14:05:00,87.3,76.7,29.90,SE,139,4.0,4.7,71,0.00,,---,0.00,VWS V13.01,2013-10-22 18:05:00,
2013-10-22 14:10:00,87.1,75.7,29.89,SSW,208,6.6,13.9,69,0.00,,---,0.00,VWS V13.01,2013-10-22 18:10:00,
2013-10-22 14:15:00,87.4,76.2,29.89,SSE,165,3.7,8.3,69,0.00,,---,0.00,VWS V13.01,2013-10-22 18:15:00,
2013-10-22 14:20:00,87.6,76.4,29.89,SW,235,4.9,5.0,70,0.00,,---,0.00,VWS V13.01,2013-10-22 18:20:00,
2013-10-22 14:26:00,87.5,76.2,29.89,SW,225,4.0,6.5,69,0.00,,---,0.00,VWS V13.01,2013-10-22 18:26:00,
2013-10-22 14:31:00,87.7,76.9,29.89,SSW,202,5.5,7.8,70,0.00,,---,0.00,VWS V13.01,2013-10-22 18:31:00,
2013-10-22 14:36:00,87.9,75.1,29.89,SW,214,6.2,8.8,66,0.00,,---,0.00,VWS V13.01,2013-10-22 18:36:00,
2013-10-22 14:41:00,88.1,74.9,29.89,South,181,5.5,8.3,65,0.00,,---,0.00,VWS V13.01,2013-10-22 18:41:00,
2013-10-22 14:46:00,88.3,74.6,29.89,SW,228,6.3,8.6,64,0.00,,---,0.00,VWS V13.01,2013-10-22 18:46:00,
2013-10-22 14:51:00,88.5,74.7,29.89,SW,236,6.3,9.5,64,0.00,,---,0.00,VWS V13.01,2013-10-22 18:51:00,
2013-10-22 14:56:00,88.3,74.7,29.89,SSW,193,5.2,7.3,64,0.00,,---,0.00,VWS V13.01,2013-10-22 18:56:00,
2013-10-22 15:01:00,88.3,74.4,29.89,South,172,3.9,4.9,64,0.00,,---,0.00,VWS V13.01,2013-10-22 19:01:00,
2013-10-22 15:06:00,88.3,74.2,29.88,SW,221,7.0,8.0,63,0.00,,---,0.00,VWS V13.01,2013-10-22 19:06:00,
2013-10-22 15:11:00,88.3,72.0,29.88,SSE,167,8.3,8.3,59,0.00,,---,0.00,VWS V13.01,2013-10-22 19:11:00,
2013-10-22 15:16:00,88.7,73.3,29.88,SSE,156,2.8,2.9,60,0.00,,---,0.00,VWS V13.01,2013-10-22 19:16:00,
2013-10-22 15:21:00,89.3,72.2,29.88,South,186,7.2,9.2,57,0.00,,---,0.00,VWS V13.01,2013-10-22 19:21:00,
2013-10-22 15:26:00,89.6,72.1,29.88,SW,222,3.5,9.1,56,0.00,,---,0.00,VWS V13.01,2013-10-22 19:26:00,
2013-10-22 15:31:00,89.3,72.5,29.88,South,174,5.0,5.5,58,0.00,,---,0.00,VWS V13.01,2013-10-22 19:31:00,
2013-10-22 15:36:00,89.8,72.6,29.87,SW,233,7.3,7.3,57,0.00,,---,0.00,VWS V13.01,2013-10-22 19:36:00,
2013-10-22 15:41:00,89.6,72.6,29.87,SSW,201,8.0,8.0,58,0.00,,---,0.00,VWS V13.01,2013-10-22 19:41:00,
2013-10-22 15:46:00,89.6,73.8,29.87,South,177,2.6,7.1,60,0.00,,---,0.00,VWS V13.01,2013-10-22 19:46:00,
2013-10-22 15:51:00,89.7,73.2,29.87,SSW,210,5.0,6.2,58,0.00,,---,0.00,VWS V13.01,2013-10-22 19:51:00,
2013-10-22 15:56:00,89.9,74.3,29.87,South,179,6.0,6.0,60,0.00,,---,0.00,VWS V13.01,2013-10-22 19:56:00,
2013-10-22 16:01:00,89.3,72.7,29.87,SW,226,7.0,9.6,58,0.00,,---,0.00,VWS V13.01,2013-10-22 20:01:00,
2013-10-22 16:06:00,88.8,72.2,29.87,West,270,7.1,9.6,58,0.00,,---,0.00,VWS V13.01,2013-10-22 20:06:00,
2013-10-22 16:11:00,88.8,72.5,29.86,South,174,5.3,8.5,59,0.00,,---,0.00,VWS V13.01,2013-10-22 20:11:00,
2013-10-22 16:16:00,89.2,72.9,29.86,SSE,166,5.4,7.6,59,0.00,,---,0.00,VWS V13.01,2013-10-22 20:16:00,
2013-10-22 16:21:00,89.7,72.8,29.86,South,173,6.0,9.3,58,0.00,,---,0.00,VWS V13.01,2013-10-22 20:21:00,
2013-10-22 16:26:00,89.6,72.8,29.86,SW,215,5.5,8.5,58,0.00,,---,0.00,VWS V13.01,2013-10-22 20:26:00,
2013-10-22 16:31:00,89.7,73.1,29.86,SW,215,4.5,5.0,58,0.00,,---,0.00,VWS V13.01,2013-10-22 20:31:00,
2013-10-22 16:37:00,89.3,74.8,29.86,South,173,5.6,8.9,62,0.00,,---,0.00,VWS V13.01,2013-10-22 20:37:00,
2013-10-22 16:42:00,88.6,74.6,29.86,SE,145,8.6,8.6,64,0.00,,---,0.00,VWS V13.01,2013-10-22 20:42:00,
2013-10-22 16:47:00,88.7,75.5,29.86,SSW,197,2.8,3.7,65,0.00,,---,0.00,VWS V13.01,2013-10-22 20:47:00,
2013-10-22 16:52:00,88.1,75.3,29.86,SW,221,6.5,6.5,66,0.00,,---,0.00,VWS V13.01,2013-10-22 20:52:00,
2013-10-22 16:57:00,87.9,75.9,29.86,SE,138,2.9,6.0,68,0.00,,---,0.00,VWS V13.01,2013-10-22 20:57:00,
2013-10-22 17:02:00,87.5,75.7,29.86,SSE,166,3.9,4.4,68,0.00,,---,0.00,VWS V13.01,2013-10-22 21:02:00,
2013-10-22 17:07:00,87.1,76.0,29.86,South,186,5.3,7.1,70,0.00,,---,0.00,VWS V13.01,2013-10-22 21:07:00,
2013-10-22 17:12:00,86.4,75.6,29.86,South,180,7.0,10.2,70,0.00,,---,0.00,VWS V13.01,2013-10-22 21:12:00,
2013-10-22 17:17:00,86.6,76.1,29.86,SSE,165,6.0,7.0,71,0.00,,---,0.00,VWS V13.01,2013-10-22 21:17:00,
2013-10-22 17:22:00,86.4,75.8,29.86,SSW,201,3.7,7.6,71,0.00,,---,0.00,VWS V13.01,2013-10-22 21:22:00,
2013-10-22 17:27:00,86.5,75.9,29.86,South,176,7.1,7.4,71,0.00,,---,0.00,VWS V13.01,2013-10-22 21:27:00,
2013-10-22 17:32:00,86.5,76.1,29.86,ESE,107,1.6,5.1,71,0.00,,---,0.00,VWS V13.01,2013-10-22 21:32:00,
2013-10-22 17:37:00,86.2,75.9,29.86,SSW,212,8.1,9.4,72,0.00,,---,0.00,VWS V13.01,2013-10-22 21:37:00,
2013-10-22 17:42:00,86.1,76.0,29.86,SSE,165,3.5,3.5,72,0.00,,---,0.00,VWS V13.01,2013-10-22 21:42:00,
2013-10-22 17:47:00,86.4,76.3,29.86,SSE,158,2.9,8.8,72,0.00,,---,0.00,VWS V13.01,2013-10-22 21:47:00,
2013-10-22 17:52:00,86.2,76.2,29.86,SSW,198,3.2,6.5,72,0.00,,---,0.00,VWS V13.01,2013-10-22 21:52:00,
2013-10-22 17:57:00,86.0,76.1,29.86,SSE,165,7.4,10.3,72,0.00,,---,0.00,VWS V13.01,2013-10-22 21:57:00,
2013-10-22 18:02:00,85.8,76.0,29.86,South,169,4.8,7.0,73,0.00,,---,0.00,VWS V13.01,2013-10-22 22:02:00,
2013-10-22 18:07:00,85.6,76.1,29.86,South,186,4.7,7.1,73,0.00,,---,0.00,VWS V13.01,2013-10-22 22:07:00,
2013-10-22 18:12:00,85.6,76.2,29.86,South,172,1.2,5.2,74,0.00,,---,0.00,VWS V13.01,2013-10-22 22:12:00,
2013-10-22 18:17:00,85.7,76.7,29.86,ESE,104,1.6,9.4,74,0.00,,---,0.00,VWS V13.01,2013-10-22 22:17:00,
2013-10-22 18:22:00,85.1,76.5,29.86,SSE,166,3.4,7.0,76,0.00,,---,0.00,VWS V13.01,2013-10-22 22:22:00,
2013-10-22 18:27:00,84.7,76.3,29.86,South,180,4.4,6.7,76,0.00,,---,0.00,VWS V13.01,2013-10-22 22:27:00,
2013-10-22 18:32:00,84.5,76.3,29.86,SSE,165,6.2,9.6,77,0.00,,---,0.00,VWS V13.01,2013-10-22 22:32:00,
2013-10-22 18:37:00,84.5,76.5,29.86,SW,235,2.4,7.6,77,0.00,,---,0.00,VWS V13.01,2013-10-22 22:37:00,
2013-10-22 18:43:00,84.3,76.5,29.85,SSE,166,2.4,5.3,78,0.00,,---,0.00,VWS V13.01,2013-10-22 22:43:00,
2013-10-22 18:48:00,84.2,76.5,29.85,SSW,194,1.5,4.1,78,0.00,,---,0.00,VWS V13.01,2013-10-22 22:48:00,
2013-10-22 18:53:00,84.1,76.5,29.85,South,191,4.3,4.7,78,0.00,,---,0.00,VWS V13.01,2013-10-22 22:53:00,
2013-10-22 18:58:00,83.9,76.4,29.85,South,186,2.7,2.7,78,0.00,,---,0.00,VWS V13.01,2013-10-22 22:58:00,
2013-10-22 19:03:00,83.8,76.4,29.84,SSW,194,2.1,2.9,79,0.00,,---,0.00,VWS V13.01,2013-10-22 23:03:00,
2013-10-22 19:08:00,83.6,76.3,29.85,South,184,5.0,5.1,79,0.00,,---,0.00,VWS V13.01,2013-10-22 23:08:00,
2013-10-22 19:13:00,83.6,76.4,29.85,SSW,211,1.8,4.6,79,0.00,,---,0.00,VWS V13.01,2013-10-22 23:13:00,
2013-10-22 19:18:00,83.5,76.5,29.85,SW,225,5.5,5.8,79,0.00,,---,0.00,VWS V13.01,2013-10-22 23:18:00,
2013-10-22 19:23:00,83.6,76.5,29.84,South,174,6.5,8.6,79,0.00,,---,0.00,VWS V13.01,2013-10-22 23:23:00,
2013-10-22 19:28:00,83.4,76.3,29.85,South,176,2.3,5.2,79,0.00,,---,0.00,VWS V13.01,2013-10-22 23:28:00,
2013-10-22 19:33:00,83.5,76.4,29.84,SW,229,2.2,4.0,79,0.00,,---,0.00,VWS V13.01,2013-10-22 23:33:00,
2013-10-22 19:38:00,83.4,76.3,29.84,SSE,158,0.7,2.5,79,0.00,,---,0.00,VWS V13.01,2013-10-22 23:38:00,
2013-10-22 19:43:00,83.4,76.2,29.85,SSW,201,6.3,6.6,79,0.00,,---,0.00,VWS V13.01,2013-10-22 23:43:00,
2013-10-22 19:48:00,83.5,76.3,29.85,WSW,243,3.0,5.6,79,0.00,,---,0.00,VWS V13.01,2013-10-22 23:48:00,
2013-10-22 19:53:00,83.4,76.2,29.85,South,188,4.5,4.5,79,0.00,,---,0.00,VWS V13.01,2013-10-22 23:53:00,
2013-10-22 19:58:00,83.3,76.1,29.85,SSW,212,3.6,5.4,79,0.00,,---,0.00,VWS V13.01,2013-10-22 23:58:00,
2013-10-22 20:03:00,83.5,76.2,29.85,SSW,210,4.9,5.1,79,0.00,,---,0.00,VWS V13.01,2013-10-23 00:03:00,
2013-10-22 20:08:00,83.4,76.2,29.85,South,187,4.7,4.8,79,0.00,,---,0.00,VWS V13.01,2013-10-23 00:08:00,
2013-10-22 20:13:00,83.4,76.2,29.85,South,170,4.8,6.5,79,0.00,,---,0.00,VWS V13.01,2013-10-23 00:13:00,
2013-10-22 20:18:00,83.2,76.0,29.85,SSW,195,3.7,3.7,79,0.00,,---,0.00,VWS V13.01,2013-10-23 00:18:00,
2013-10-22 20:23:00,83.5,76.3,29.86,SSW,212,4.3,4.9,79,0.00,,---,0.00,VWS V13.01,2013-10-23 00:23:00,
2013-10-22 20:28:00,83.2,76.1,29.86,South,179,3.1,6.8,79,0.00,,---,0.00,VWS V13.01,2013-10-23 00:28:00,
2013-10-22 20:33:00,83.2,76.1,29.86,SW,236,7.9,7.9,79,0.00,,---,0.00,VWS V13.01,2013-10-23 00:33:00,
2013-10-22 20:38:00,83.2,76.2,29.87,West,260,5.8,7.3,80,0.00,,---,0.00,VWS V13.01,2013-10-23 00:38:00,
2013-10-22 20:43:00,83.1,76.2,29.87,SW,219,5.8,6.2,80,0.00,,---,0.00,VWS V13.01,2013-10-23 00:43:00,
2013-10-22 20:48:00,83.1,76.2,29.87,South,177,3.2,5.9,80,0.00,,---,0.00,VWS V13.01,2013-10-23 00:48:00,
2013-10-22 20:53:00,83.2,76.4,29.87,ESE,112,2.2,6.8,80,0.00,,---,0.00,VWS V13.01,2013-10-23 00:53:00,
2013-10-22 20:58:00,82.9,76.1,29.87,SW,214,2.7,4.4,80,0.00,,---,0.00,VWS V13.01,2013-10-23 00:58:00,
2013-10-22 21:03:00,83.0,76.2,29.87,SW,217,3.0,3.5,80,0.00,,---,0.00,VWS V13.01,2013-10-23 01:03:00,
2013-10-22 21:09:00,82.9,76.1,29.87,WSW,242,2.0,3.0,80,0.00,,---,0.00,VWS V13.01,2013-10-23 01:09:00,
2013-10-22 21:14:00,82.9,76.2,29.87,West,262,3.4,5.0,80,0.00,,---,0.00,VWS V13.01,2013-10-23 01:14:00,
2013-10-22 21:19:00,83.0,76.3,29.87,West,271,1.2,2.5,80,0.00,,---,0.00,VWS V13.01,2013-10-23 01:19:00,
2013-10-22 21:24:00,82.7,76.1,29.87,SW,236,0.0,3.9,80,0.00,,---,0.00,VWS V13.01,2013-10-23 01:24:00,
2013-10-22 21:29:00,82.5,75.9,29.88,SSW,198,2.6,2.6,80,0.00,,---,0.00,VWS V13.01,2013-10-23 01:29:00,
2013-10-22 21:34:00,82.7,76.0,29.88,SW,233,2.8,5.3,80,0.00,,---,0.00,VWS V13.01,2013-10-23 01:34:00,
2013-10-22 21:39:00,82.7,75.9,29.88,SW,221,0.8,4.9,80,0.00,,---,0.00,VWS V13.01,2013-10-23 01:39:00,
2013-10-22 21:44:00,82.6,75.8,29.88,West,271,3.3,4.0,80,0.00,,---,0.00,VWS V13.01,2013-10-23 01:44:00,
2013-10-22 21:49:00,82.8,75.9,29.88,West,259,2.2,3.0,80,0.00,,---,0.00,VWS V13.01,2013-10-23 01:49:00,
2013-10-22 21:54:00,82.8,75.9,29.88,West,259,4.8,4.8,80,0.00,,---,0.00,VWS V13.01,2013-10-23 01:54:00,
2013-10-22 21:59:00,83.0,76.1,29.88,SW,221,1.6,3.8,80,0.00,,---,0.00,VWS V13.01,2013-10-23 01:59:00,
2013-10-22 22:04:00,82.8,75.9,29.88,WSW,240,1.1,2.7,80,0.00,,---,0.00,VWS V13.01,2013-10-23 02:04:00,
2013-10-22 22:09:00,83.0,76.1,29.88,NW,322,0.0,1.1,80,0.00,,---,0.00,VWS V13.01,2013-10-23 02:09:00,
2013-10-22 22:14:00,82.8,75.4,29.89,West,281,1.7,2.5,78,0.00,,---,0.00,VWS V13.01,2013-10-23 02:14:00,
2013-10-22 22:19:00,82.7,75.3,29.89,West,274,1.9,1.9,78,0.00,,---,0.00,VWS V13.01,2013-10-23 02:19:00,
2013-10-22 22:24:00,82.8,75.0,29.89,SW,232,3.4,3.6,77,0.00,,---,0.00,VWS V13.01,2013-10-23 02:24:00,
2013-10-22 22:29:00,82.9,74.8,29.89,WNW,287,1.9,2.7,77,0.00,,---,0.00,VWS V13.01,2013-10-23 02:29:00,
2013-10-22 22:34:00,82.6,74.5,29.89,SSW,208,3.3,4.1,76,0.00,,---,0.00,VWS V13.01,2013-10-23 02:34:00,
2013-10-22 22:39:00,82.6,74.5,29.89,WNW,302,2.2,5.2,76,0.00,,---,0.00,VWS V13.01,2013-10-23 02:39:00,
2013-10-22 22:44:00,82.7,74.6,29.89,WSW,248,5.3,5.4,77,0.00,,---,0.00,VWS V13.01,2013-10-23 02:44:00,
2013-10-22 22:49:00,82.6,74.6,29.89,West,280,4.1,6.6,77,0.00,,---,0.00,VWS V13.01,2013-10-23 02:49:00,
2013-10-22 22:54:00,82.5,74.6,29.89,West,271,2.0,5.8,77,0.00,,---,0.00,VWS V13.01,2013-10-23 02:54:00,
2013-10-22 22:59:00,82.3,74.6,29.89,NW,319,2.9,5.2,78,0.00,,---,0.00,VWS V13.01,2013-10-23 02:59:00,
2013-10-22 23:04:00,82.4,74.8,29.89,WSW,239,2.0,4.4,78,0.00,,---,0.00,VWS V13.01,2013-10-23 03:04:00,
2013-10-22 23:09:00,82.5,75.0,29.89,West,267,4.6,4.8,78,0.00,,---,0.00,VWS V13.01,2013-10-23 03:09:00,
2013-10-22 23:14:00,82.2,74.9,29.89,West,276,3.2,4.3,79,0.00,,---,0.00,VWS V13.01,2013-10-23 03:14:00,
2013-10-22 23:19:00,82.2,75.0,29.89,West,267,2.1,4.3,79,0.00,,---,0.00,VWS V13.01,2013-10-23 03:19:00,
2013-10-22 23:24:00,82.2,75.1,29.89,NW,305,1.3,1.5,79,0.00,,---,0.00,VWS V13.01,2013-10-23 03:24:00,
2013-10-22 23:30:00,81.8,74.9,29.89,West,266,4.1,4.9,80,0.00,,---,0.00,VWS V13.01,2013-10-23 03:30:00,
2013-10-22 23:35:00,81.9,75.2,29.89,WSW,249,1.7,4.9,80,0.00,,---,0.00,VWS V13.01,2013-10-23 03:35:00,
2013-10-22 23:40:00,81.8,75.1,29.89,West,273,0.6,4.3,80,0.00,,---,0.00,VWS V13.01,2013-10-23 03:40:00,
2013-10-22 23:45:00,82.0,75.4,29.89,WNW,302,4.0,5.9,81,0.00,,---,0.00,VWS V13.01,2013-10-23 03:45:00,
2013-10-22 23:50:00,81.6,75.2,29.89,NNW,336,1.9,4.2,81,0.00,,---,0.00,VWS V13.01,2013-10-23 03:50:00,
2013-10-22 23:55:00,81.6,75.2,29.89,WNW,285,4.2,4.2,81,0.00,,---,0.00,VWS V13.01,2013-10-23 03:55:00,